Time,TemperatureF,DewpointF,PressureIn,WindDirection,WindDirectionDegrees,WindSpeedMPH,WindSpeedGustMPH,Humidity,HourlyPrecipIn,Conditions,Clouds,dailyrainin,SoftwareType,DateUTC
2013-01-21 00:04:00,22.0,12.0,-100.00,WNW,295,6.0,9.0,65,0.00,,,-99.99,,2013-01-21 05:04:00,
2013-01-21 00:12:00,22.0,12.0,-100.00,NW,305,4.0,9.0,65,0.00,,,-99.99,,2013-01-21 05:12:00,
2013-01-21 00:22:00,22.0,12.0,-100.00,NW,320,7.0,9.0,66,0.00,,,-99.99,,2013-01-21 05:22:00,
2013-01-21 00:34:00,22.0,12.0,-100.00,WNW,295,3.0,8.0,66,0.00,,,-99.99,,2013-01-21 05:34:00,
2013-01-21 00:42:00,22.0,12.0,-100.00,WNW,300,4.0,9.0,67,0.00,,,-99.99,,2013-01-21 05:42:00,
2013-01-21 00:52:00,22.0,13.0,-100.00,WNW,290,5.0,9.0,68,0.00,,,-99.99,,2013-01-21 05:52:00,
2013-01-21 01:03:00,21.0,12.0,-100.00,WNW,290,4.0,9.0,68,0.00,,,-99.99,,2013-01-21 06:03:00,
2013-01-21 01:13:00,21.0,13.0,-100.00,West,280,3.0,6.0,70,0.00,,,-99.99,,2013-01-21 06:13:00,
2013-01-21 01:23:00,21.0,13.0,-100.00,WNW,290,2.0,6.0,72,0.00,,,-99.99,,2013-01-21 06:23:00,
2013-01-21 01:33:00,20.0,14.0,-100.00,NW,305,4.0,7.0,75,0.00,,,-99.99,,2013-01-21 06:33:00,
2013-01-21 01:43:00,20.0,15.0,-100.00,NW,315,4.0,6.0,77,0.00,,,-99.99,,2013-01-21 06:43:00,
2013-01-21 01:52:00,20.0,14.0,-100.00,WNW,300,4.0,6.0,77,0.00,,,-99.99,,2013-01-21 06:52:00,
2013-01-21 02:03:00,20.0,15.0,-100.00,WNW,295,3.0,6.0,78,0.00,,,-99.99,,2013-01-21 07:03:00,
2013-01-21 02:13:00,20.0,14.0,-100.00,WNW,290,4.0,6.0,77,0.00,,,-99.99,,2013-01-21 07:13:00,
2013-01-21 02:22:00,20.0,15.0,-100.00,West,280,2.0,6.0,78,0.00,,,-99.99,,2013-01-21 07:22:00,
2013-01-21 02:33:00,20.0,15.0,-100.00,NW,320,4.0,5.0,79,0.00,,,-99.99,,2013-01-21 07:33:00,
2013-01-21 02:42:00,20.0,15.0,-100.00,NW,320,5.0,7.0,81,0.00,,,-99.99,,2013-01-21 07:42:00,
2013-01-21 02:52:00,20.0,15.0,-100.00,West,280,2.0,6.0,79,0.00,,,-99.99,,2013-01-21 07:52:00,
2013-01-21 03:03:00,20.0,14.0,-100.00,WNW,290,2.0,6.0,78,0.00,,,-99.99,,2013-01-21 08:03:00,
2013-01-21 03:14:00,20.0,14.0,-100.00,West,275,2.0,6.0,76,0.00,,,-99.99,,2013-01-21 08:14:00,
2013-01-21 03:23:00,20.0,13.0,-100.00,WNW,295,5.0,6.0,75,0.00,,,-99.99,,2013-01-21 08:23:00,
2013-01-21 03:33:00,20.0,14.0,-100.00,WNW,285,1.0,6.0,76,0.00,,,-99.99,,2013-01-21 08:33:00,
2013-01-21 03:42:00,20.0,14.0,-100.00,WNW,290,3.0,6.0,76,0.00,,,-99.99,,2013-01-21 08:42:00,
2013-01-21 03:53:00,20.0,13.0,-100.00,WNW,300,4.0,6.0,75,0.00,,,-99.99,,2013-01-21 08:53:00,
2013-01-21 04:03:00,20.0,13.0,-100.00,WNW,290,2.0,6.0,75,0.00,,,-99.99,,2013-01-21 09:03:00,
2013-01-21 04:12:00,20.0,14.0,-100.00,WNW,295,3.0,6.0,76,0.00,,,-99.99,,2013-01-21 09:12:00,
2013-01-21 04:23:00,20.0,13.0,-100.00,NW,305,4.0,7.0,74,0.00,,,-99.99,,2013-01-21 09:23:00,
2013-01-21 04:33:00,20.0,13.0,-100.00,West,265,3.0,6.0,74,0.00,,,-99.99,,2013-01-21 09:33:00,
2013-01-21 04:42:00,20.0,13.0,-100.00,WNW,300,4.0,5.0,74,0.00,,,-99.99,,2013-01-21 09:42:00,
2013-01-21 04:52:00,20.0,13.0,-100.00,WNW,285,3.0,6.0,73,0.00,,,-99.99,,2013-01-21 09:52:00,
2013-01-21 05:02:00,20.0,13.0,-100.00,West,275,3.0,6.0,74,0.00,,,-99.99,,2013-01-21 10:02:00,
2013-01-21 05:12:00,20.0,13.0,-100.00,West,275,3.0,6.0,75,0.00,,,-99.99,,2013-01-21 10:12:00,
2013-01-21 05:22:00,20.0,13.0,-100.00,WNW,285,3.0,6.0,77,0.55,,,-99.99,,2013-01-21 10:22:00,
2013-01-21 05:33:00,20.0,14.0,-100.00,West,275,3.0,4.0,77,0.55,,,-99.99,,2013-01-21 10:33:00,
2013-01-21 05:43:00,19.0,13.0,-100.00,WNW,285,3.0,6.0,77,0.00,,,-99.99,,2013-01-21 10:43:00,
2013-01-21 05:52:00,19.0,14.0,-100.00,West,280,3.0,6.0,78,0.00,,,-99.99,,2013-01-21 10:52:00,
2013-01-21 06:03:00,19.0,14.0,-100.00,West,280,2.0,6.0,79,0.55,,,-99.99,,2013-01-21 11:03:00,
2013-01-21 06:13:00,19.0,14.0,-100.00,WNW,300,2.0,5.0,79,0.00,,,-99.99,,2013-01-21 11:13:00,
2013-01-21 06:23:00,19.0,14.0,-100.00,West,270,2.0,6.0,79,0.00,,,-99.99,,2013-01-21 11:23:00,
2013-01-21 06:33:00,19.0,13.0,-100.00,WSW,255,4.0,7.0,75,0.00,,,-99.99,,2013-01-21 11:33:00,
2013-01-21 06:43:00,19.0,12.0,-100.00,WNW,285,3.0,7.0,75,0.00,,,-99.99,,2013-01-21 11:43:00,
2013-01-21 06:53:00,19.0,13.0,-100.00,West,280,2.0,5.0,76,0.00,,,-99.99,,2013-01-21 11:53:00,
2013-01-21 07:03:00,19.0,13.0,-100.00,West,270,3.0,9.0,76,0.00,,,-99.99,,2013-01-21 12:03:00,
2013-01-21 07:12:00,19.0,13.0,-100.00,WSW,250,1.0,6.0,77,0.55,,,-99.99,,2013-01-21 12:12:00,
2013-01-21 07:22:00,19.0,13.0,-100.00,WSW,255,1.0,6.0,78,0.00,,,-99.99,,2013-01-21 12:22:00,
2013-01-21 07:33:00,19.0,13.0,-100.00,West,260,1.0,4.0,79,0.00,,,-99.99,,2013-01-21 12:33:00,
2013-01-21 07:42:00,19.0,14.0,-100.00,WSW,240,1.0,5.0,79,0.00,,,-99.99,,2013-01-21 12:42:00,
2013-01-21 07:52:00,19.0,14.0,-100.00,WSW,245,3.0,4.0,80,0.00,,,-99.99,,2013-01-21 12:52:00,
2013-01-21 08:03:00,19.0,13.0,-100.00,WSW,240,4.0,6.0,79,0.00,,,-99.99,,2013-01-21 13:03:00,
2013-01-21 08:13:00,19.0,13.0,-100.00,WSW,255,4.0,6.0,79,0.55,,,-99.99,,2013-01-21 13:13:00,
2013-01-21 08:23:00,19.0,14.0,-100.00,WSW,255,4.0,7.0,80,0.00,,,-99.99,,2013-01-21 13:23:00,
2013-01-21 08:33:00,19.0,14.0,-100.00,West,265,2.0,6.0,81,0.00,,,-99.99,,2013-01-21 13:33:00,
2013-01-21 08:43:00,19.0,14.0,-100.00,WSW,255,2.0,4.0,82,0.55,,,-99.99,,2013-01-21 13:43:00,
2013-01-21 08:53:00,19.0,14.0,-100.00,West,265,2.0,4.0,82,0.55,,,-99.99,,2013-01-21 13:53:00,
2013-01-21 09:03:00,19.0,14.0,-100.00,West,265,2.0,6.0,82,0.55,,,-99.99,,2013-01-21 14:03:00,
2013-01-21 09:12:00,19.0,15.0,-100.00,West,265,4.0,6.0,82,0.55,,,-99.99,,2013-01-21 14:12:00,
2013-01-21 09:23:00,19.0,15.0,-100.00,WSW,255,2.0,5.0,84,0.55,,,-99.99,,2013-01-21 14:23:00,
2013-01-21 09:33:00,19.0,15.0,-100.00,West,275,2.0,6.0,84,0.55,,,-99.99,,2013-01-21 14:33:00,
2013-01-21 09:43:00,19.0,15.0,-100.00,West,270,2.0,7.0,84,0.55,,,-99.99,,2013-01-21 14:43:00,
2013-01-21 09:53:00,19.0,15.0,-100.00,WSW,245,3.0,7.0,84,0.00,,,-99.99,,2013-01-21 14:53:00,
2013-01-21 10:03:00,19.0,16.0,-100.00,WSW,255,3.0,6.0,84,0.00,,,-99.99,,2013-01-21 15:03:00,
2013-01-21 10:13:00,19.0,16.0,-100.00,WSW,245,4.0,6.0,84,0.55,,,-99.99,,2013-01-21 15:13:00,
2013-01-21 10:23:00,19.0,16.0,-100.00,West,265,3.0,7.0,85,0.00,,,-99.99,,2013-01-21 15:23:00,
2013-01-21 10:33:00,20.0,16.0,-100.00,WSW,250,4.0,6.0,85,0.55,,,-99.99,,2013-01-21 15:33:00,
2013-01-21 10:43:00,20.0,16.0,-100.00,West,275,3.0,7.0,86,0.00,,,-99.99,,2013-01-21 15:43:00,
2013-01-21 10:53:00,20.0,16.0,-100.00,West,275,3.0,6.0,85,0.55,,,-99.99,,2013-01-21 15:53:00,
2013-01-21 11:04:00,20.0,16.0,-100.00,West,260,2.0,7.0,85,0.55,,,-99.99,,2013-01-21 16:04:00,
2013-01-21 11:12:00,20.0,16.0,-100.00,WSW,255,5.0,8.0,86,3.94,,,-99.99,,2013-01-21 16:12:00,
2013-01-21 11:23:00,20.0,16.0,-100.00,West,275,7.0,12.0,84,0.00,,,-99.99,,2013-01-21 16:23:00,
2013-01-21 11:33:00,20.0,16.0,-100.00,West,270,7.0,11.0,84,6.77,,,-99.99,,2013-01-21 16:33:00,
2013-01-21 11:43:00,20.0,15.0,-100.00,West,275,7.0,14.0,81,0.00,,,-99.99,,2013-01-21 16:43:00,
2013-01-21 11:53:00,20.0,13.0,-100.00,WSW,240,11.0,19.0,74,0.00,,,-99.99,,2013-01-21 16:53:00,
2013-01-21 12:03:00,20.0,12.0,-100.00,WSW,255,11.0,20.0,69,0.00,,,-99.99,,2013-01-21 17:03:00,
2013-01-21 12:12:00,20.0,12.0,-100.00,West,280,10.0,19.0,72,0.00,,,-99.99,,2013-01-21 17:12:00,
2013-01-21 12:23:00,20.0,13.0,-100.00,West,270,12.0,17.0,73,0.00,,,-99.99,,2013-01-21 17:23:00,
2013-01-21 12:33:00,20.0,11.0,-100.00,West,275,7.0,14.0,68,0.00,,,-99.99,,2013-01-21 17:33:00,
2013-01-21 12:43:00,20.0,10.0,-100.00,West,280,9.0,20.0,64,0.00,,,-99.99,,2013-01-21 17:43:00,
2013-01-21 12:53:00,20.0,10.0,-100.00,WNW,285,12.0,20.0,64,0.00,,,-99.99,,2013-01-21 17:53:00,
2013-01-21 13:03:00,20.0,11.0,-100.00,West,275,9.0,19.0,69,0.00,,,-99.99,,2013-01-21 18:03:00,
2013-01-21 13:12:00,19.0,13.0,-100.00,WNW,290,5.0,16.0,77,1.10,,,-99.99,,2013-01-21 18:12:00,
2013-01-21 13:22:00,18.0,13.0,-100.00,West,260,11.0,16.0,80,0.00,,,-99.99,,2013-01-21 18:22:00,
2013-01-21 13:33:00,19.0,14.0,-100.00,WSW,255,7.0,13.0,79,0.55,,,-99.99,,2013-01-21 18:33:00,
2013-01-21 13:42:00,19.0,14.0,-100.00,West,270,9.0,16.0,79,0.00,,,-99.99,,2013-01-21 18:42:00,
2013-01-21 13:52:00,19.0,12.0,-100.00,West,265,12.0,20.0,72,0.00,,,-99.99,,2013-01-21 18:52:00,
2013-01-21 14:03:00,19.0,12.0,-100.00,WSW,255,7.0,21.0,72,0.00,,,-99.99,,2013-01-21 19:03:00,
2013-01-21 14:12:00,19.0,12.0,-100.00,WSW,255,9.0,22.0,72,0.00,,,-99.99,,2013-01-21 19:12:00,
2013-01-21 14:22:00,20.0,12.0,-100.00,WSW,255,9.0,19.0,70,0.00,,,-99.99,,2013-01-21 19:22:00,
2013-01-21 14:33:00,19.0,12.0,-100.00,WSW,255,14.0,25.0,72,0.00,,,-99.99,,2013-01-21 19:33:00,
2013-01-21 14:43:00,20.0,9.0,-100.00,WSW,255,12.0,20.0,62,0.00,,,-99.99,,2013-01-21 19:43:00,
2013-01-21 14:53:00,19.0,10.0,-100.00,West,265,11.0,17.0,68,0.55,,,-99.99,,2013-01-21 19:53:00,
2013-01-21 15:03:00,18.0,9.0,-100.00,West,260,11.0,20.0,66,0.00,,,-99.99,,2013-01-21 20:03:00,
2013-01-21 15:12:00,19.0,8.0,-100.00,WSW,255,10.0,21.0,62,0.00,,,-99.99,,2013-01-21 20:12:00,
2013-01-21 15:23:00,18.0,7.0,-100.00,WNW,285,14.0,24.0,61,0.00,,,-99.99,,2013-01-21 20:23:00,
2013-01-21 15:33:00,18.0,7.0,-100.00,WSW,250,10.0,22.0,62,0.00,,,-99.99,,2013-01-21 20:33:00,
2013-01-21 15:43:00,18.0,6.0,-100.00,WSW,255,14.0,29.0,59,0.00,,,-99.99,,2013-01-21 20:43:00,
2013-01-21 15:53:00,17.0,6.0,-100.00,WNW,290,16.0,27.0,63,0.00,,,-99.99,,2013-01-21 20:53:00,
2013-01-21 16:04:00,16.0,6.0,-100.00,West,270,12.0,21.0,64,0.00,,,-99.99,,2013-01-21 21:04:00,
2013-01-21 16:12:00,17.0,6.0,-100.00,West,280,12.0,18.0,62,0.00,,,-99.99,,2013-01-21 21:12:00,
2013-01-21 16:23:00,17.0,4.0,-100.00,West,275,12.0,24.0,58,0.00,,,-99.99,,2013-01-21 21:23:00,
2013-01-21 16:33:00,16.0,4.0,-100.00,WNW,285,16.0,24.0,57,0.00,,,-99.99,,2013-01-21 21:33:00,
2013-01-21 16:43:00,16.0,4.0,-100.00,West,280,16.0,25.0,60,0.00,,,-99.99,,2013-01-21 21:43:00,
2013-01-21 16:53:00,16.0,4.0,-100.00,West,265,12.0,21.0,58,0.00,,,-99.99,,2013-01-21 21:53:00,
2013-01-21 17:03:00,16.0,2.0,-100.00,West,265,14.0,25.0,54,0.00,,,-99.99,,2013-01-21 22:03:00,
2013-01-21 17:12:00,16.0,2.0,-100.00,WNW,290,14.0,25.0,54,0.00,,,-99.99,,2013-01-21 22:12:00,
2013-01-21 17:23:00,15.0,4.0,-100.00,WNW,285,12.0,22.0,61,0.00,,,-99.99,,2013-01-21 22:23:00,
2013-01-21 17:33:00,14.0,4.0,-100.00,WNW,295,9.0,24.0,64,0.00,,,-99.99,,2013-01-21 22:33:00,
2013-01-21 17:43:00,14.0,3.0,-100.00,WNW,300,9.0,22.0,60,0.00,,,-99.99,,2013-01-21 22:43:00,
2013-01-21 17:52:00,14.0,1.0,-100.00,West,275,12.0,20.0,55,0.00,,,-99.99,,2013-01-21 22:52:00,
2013-01-21 18:03:00,14.0,-1.0,-100.00,West,275,11.0,19.0,51,0.00,,,-99.99,,2013-01-21 23:03:00,
2013-01-21 18:13:00,14.0,-1.0,-100.00,West,265,8.0,17.0,51,0.00,,,-99.99,,2013-01-21 23:13:00,
2013-01-21 18:23:00,14.0,0.0,-100.00,West,275,7.0,16.0,53,0.00,,,-99.99,,2013-01-21 23:23:00,
2013-01-21 18:33:00,13.0,1.0,-100.00,West,265,8.0,14.0,56,0.00,,,-99.99,,2013-01-21 23:33:00,
2013-01-21 18:42:00,13.0,2.0,-100.00,West,280,10.0,17.0,59,0.00,,,-99.99,,2013-01-21 23:42:00,
2013-01-21 18:53:00,13.0,4.0,-100.00,WNW,295,10.0,18.0,67,0.00,,,-99.99,,2013-01-21 23:53:00,
2013-01-21 19:03:00,13.0,6.0,-100.00,WSW,255,9.0,21.0,72,0.00,,,-99.99,,2013-01-22 00:03:00,
2013-01-21 19:12:00,13.0,7.0,-100.00,WNW,285,12.0,22.0,76,0.55,,,-99.99,,2013-01-22 00:12:00,
2013-01-21 19:22:00,12.0,7.0,-100.00,West,260,9.0,19.0,78,0.55,,,-99.99,,2013-01-22 00:22:00,
2013-01-21 19:33:00,12.0,5.0,-100.00,WNW,285,9.0,17.0,72,0.00,,,-99.99,,2013-01-22 00:33:00,
2013-01-21 19:43:00,12.0,4.0,-100.00,West,275,6.0,19.0,68,0.00,,,-99.99,,2013-01-22 00:43:00,
2013-01-21 19:53:00,12.0,4.0,-100.00,West,260,8.0,16.0,69,0.00,,,-99.99,,2013-01-22 00:53:00,
2013-01-21 20:02:00,12.0,1.0,-100.00,WNW,285,11.0,19.0,62,0.00,,,-99.99,,2013-01-22 01:02:00,
2013-01-21 20:12:00,12.0,3.0,-100.00,WNW,285,7.0,17.0,67,0.00,,,-99.99,,2013-01-22 01:12:00,
2013-01-21 20:23:00,12.0,2.0,-100.00,West,280,12.0,18.0,66,0.00,,,-99.99,,2013-01-22 01:23:00,
2013-01-21 20:33:00,11.0,1.0,-100.00,West,275,12.0,19.0,62,0.00,,,-99.99,,2013-01-22 01:33:00,
2013-01-21 20:42:00,11.0,-1.0,-100.00,West,275,9.0,22.0,59,0.00,,,-99.99,,2013-01-22 01:42:00,
2013-01-21 20:52:00,11.0,-1.0,-100.00,West,275,7.0,21.0,60,0.00,,,-99.99,,2013-01-22 01:52:00,
2013-01-21 21:03:00,10.0,-1.0,-100.00,WNW,285,14.0,22.0,60,0.00,,,-99.99,,2013-01-22 02:03:00,
2013-01-21 21:12:00,10.0,-1.0,-100.00,WNW,285,14.0,19.0,60,0.00,,,-99.99,,2013-01-22 02:12:00,
2013-01-21 21:22:00,10.0,-1.0,-100.00,WNW,290,11.0,19.0,61,0.00,,,-99.99,,2013-01-22 02:22:00,
2013-01-21 21:32:00,10.0,-1.0,-100.00,West,280,12.0,22.0,62,0.00,,,-99.99,,2013-01-22 02:32:00,
2013-01-21 21:43:00,9.0,0.0,-100.00,West,260,8.0,21.0,66,0.00,,,-99.99,,2013-01-22 02:43:00,
2013-01-21 21:53:00,9.0,1.0,-100.00,West,280,9.0,19.0,69,0.00,,,-99.99,,2013-01-22 02:53:00,
2013-01-21 22:03:00,9.0,1.0,-100.00,West,275,7.0,19.0,70,0.00,,,-99.99,,2013-01-22 03:03:00,
2013-01-21 22:12:00,9.0,1.0,-100.00,West,275,7.0,14.0,71,0.00,,,-99.99,,2013-01-22 03:12:00,
2013-01-21 22:22:00,9.0,0.0,-100.00,West,280,9.0,16.0,64,0.00,,,-99.99,,2013-01-22 03:22:00,
2013-01-21 22:33:00,9.0,-1.0,-100.00,WNW,285,11.0,19.0,63,0.00,,,-99.99,,2013-01-22 03:33:00,
2013-01-21 22:42:00,9.0,-1.0,-100.00,West,270,9.0,21.0,65,0.00,,,-99.99,,2013-01-22 03:42:00,
2013-01-21 22:52:00,8.0,-1.0,-100.00,West,265,6.0,18.0,65,0.00,,,-99.99,,2013-01-22 03:52:00,
2013-01-21 23:03:00,8.0,-1.0,-100.00,West,275,6.0,16.0,66,0.00,,,-99.99,,2013-01-22 04:03:00,
2013-01-21 23:12:00,8.0,-1.0,-100.00,West,275,7.0,18.0,65,0.00,,,-99.99,,2013-01-22 04:12:00,
2013-01-21 23:22:00,8.0,-1.0,-100.00,WNW,285,6.0,19.0,66,0.00,,,-99.99,,2013-01-22 04:22:00,
2013-01-21 23:33:00,8.0,-1.0,-100.00,West,270,7.0,16.0,67,0.00,,,-99.99,,2013-01-22 04:33:00,
2013-01-21 23:42:00,8.0,0.0,-100.00,West,265,7.0,12.0,68,0.00,,,-99.99,,2013-01-22 04:42:00,
2013-01-21 23:52:00,8.0,-2.0,-100.00,West,280,9.0,18.0,64,0.00,,,-99.99,,2013-01-22 04:52:00,